Home > Weather > Londrina > Past weeks

Flag for Brazil Past Weather in Londrina, Paraná, Brazil — Yesterday and Last 2 Weeks

Now
68 °F

Sunny.


Feels Like: 68 °F
Forecast: 56 / 75 °F
Wind: 8 mph from East

Location: Londrina Aeroporto

Current Time: Jun 25, 2016 at 1:04:17 PM

Latest Report: Jun 25, 2016 at 12:00 PM


Visibility: 10 mi

Pressure: 30.24 "Hg (28.15 "Hg at 615m altitude)

Humidity: 56%

Dew Point: 52 °F

Location of LondrinaLocation

Past Weather in Londrina — Graph

°F

Londrina Temperature Yesterday

Maximum temperature yesterday: 75 °F (at 4:00 PM)
Minimum temperature yesterday: 54 °F (at 5:00 AM)
Average temperature yesterday: 63 °F

High & Low Weather Summary for the Past Weeks

 TemperatureHumidityPressure
High81 °F (Jun 17, 3:00 PM)100% (Jun 18, 7:00 AM)30.39 "Hg (Jun 18, 7:00 AM)
Low39 °F (Jun 13, 6:00 AM)20% (Jun 12, 3:00 PM)30.09 "Hg (Jun 17, 2:00 PM)
Average61 °F71%30.21 "Hg
* Reported Jun 10 12:00 PM — Jun 25 12:00 PM, Londrina, Weather by CustomWeather, © 2016

Note: Actual official high and low records may vary slightly from our data, if they occured in-between our weather recording intervals... More about our weather records

Advertising

Londrina Weather History for the Previous 24 Hours

Scroll right to see more
 ConditionsComfort  
Time TempWeatherWind HumidityBarometerVisibility
12:00 PM
Sat, Jun 25
68 °FSunny.8 mph56%30.24 "Hg10 mi
11:00 AM66 °FSunny.6 mph56%30.27 "Hg10 mi
10:00 AM63 °FSunny.3 mph64%30.27 "Hg10 mi
9:00 AM59 °FSunny.3 mph68%30.27 "Hg10 mi
8:00 AM55 °FSunny.No wind77%30.24 "Hg10 mi
7:00 AM54 °FSunny.3 mph77%30.24 "Hg10 mi
6:00 AM55 °FClear.5 mph77%30.24 "Hg10 mi
5:00 AM57 °FClear.7 mph72%30.21 "Hg10 mi
4:00 AM59 °FClear.6 mph82%30.21 "Hg10 mi
3:00 AM59 °FClear.2 mph88%30.24 "Hg10 mi
2:00 AM59 °FClear.3 mph88%30.24 "Hg10 mi
1:00 AM61 °FClear.3 mph83%30.24 "Hg10 mi
12:00 AM63 °FClear.No wind77%30.24 "Hg10 mi
11:00 PM
Fri, Jun 24
61 °FClear.No wind83%30.24 "Hg10 mi
10:00 PM63 °FClear.5 mph77%30.21 "Hg10 mi
9:00 PM64 °FClear.6 mph73%30.21 "Hg10 mi
8:00 PM66 °FClear.7 mph73%30.18 "Hg10 mi
7:00 PM66 °FClear.6 mph73%30.18 "Hg10 mi
6:00 PM70 °FClear.7 mph64%30.15 "Hg10 mi
5:00 PM73 °FClear.7 mph57%30.15 "Hg10 mi
4:00 PM75 °FSunny.7 mph54%30.15 "Hg10 mi
3:00 PM73 °FSunny.7 mph57%30.15 "Hg10 mi
2:00 PM73 °FSunny.6 mph57%30.18 "Hg10 mi
1:00 PM72 °FSunny.7 mph57%30.18 "Hg10 mi
Weather by CustomWeather, © 2016

See weather overviewHow to use our weather pages